2014 UX7

Initial reported observation by Mt. Lemmon Survey on 2014-10-21.
(Discoverer will be defined when the object is numbered. See this note on how discoverers are determined.)

Orbit

Orbit type: Amor
Near-Earth Object
One opposition object seen prior.

Note: WebGL enabled browser required.

epoch2019-04-27.0
epoch JD2458600.5
perihelion date2019-04-28.09528
perihelion JD2458601.59528
argument of perihelion (°)136.50530
ascending node (°)208.41770
inclination (°)7.31107
eccentricity0.0494654
perihelion distance (AU)1.0500492
Tisserand w.r.t. Jupiter5.6
ΔV w.r.t. Earth (km/sec)5.3
semimajor axis (AU)1.1046932
mean anomaly (°)359.07025
mean daily motion (°/day)0.84887030
aphelion distance (AU)1.159
period (years)1.16
P-vector [x]0.96291408
P-vector [y]-0.26897799
P-vector [z]-0.02114969
Q-vector [x]0.26292369
Q-vector [y]0.91786191
Q-vector [z]0.29732248
absolute magnitude25.6
phase slope0.15
uncertainty5
referenceMPO 322364
observations used46
oppositions1
arc length (days)35
first opposition used2014
last opposition used2014
residual rms (arc-secs)0.44
perturbers coarse indicatorM-v
perturbers precise indicator003Eh
first observation date used2014-10-21.0
last observation date used2014-11-25.0
computer nameMPCALB
JD of orbit computation2456990.673086
perihelion JD uncertainty (days)2.3732E-03
argument of perihelion uncertainty (°)1.9537E-03
ascending node uncertainty (°)1.0581E-04
inclination uncertainty (°)1.2174E-03
eccentricity uncertainty 1.2542E-05
perihelion distance uncertainty (AU)6.3793E-06
Minimum Orbit Intersection Distances (in AU)
for orbit epoch: 2458600.5, reference: MPO322364
Mercury0.63792
Venus0.33889
Earth0.06424
Mars0.35415
Jupiter3.89169
Saturn7.97818
Uranus17.0853
Neptune28.8236

Observations

47 total observations over interval: 2014 10 21.35268 – 2014 11 25.384887
These data are available for download (format description).

Date (UT) J2000 RA J2000 Dec Magn Location Ref
2014 10 21.35268 02 21 55.12 +14 23 58.5 20.3 V G96 – Mt. Lemmon Survey MPS 540782
2014 10 21.36028 02 21 55.07 +14 23 06.9 20.2 V G96 – Mt. Lemmon Survey MPS 540782
2014 10 21.36787 02 21 55.02 +14 22 16.1 20.0 V G96 – Mt. Lemmon Survey MPS 540782
2014 10 21.37548 02 21 54.96 +14 21 25.6 20.1 V G96 – Mt. Lemmon Survey MPS 540782
2014 10 21.43836 02 21 54.77 +14 14 23.1 20.1 V G96 – Mt. Lemmon Survey MPS 540782
2014 10 21.43885 02 21 54.80 +14 14 19.8 19.9 V G96 – Mt. Lemmon Survey MPS 540782
2014 10 21.43935 02 21 54.80 +14 14 16.4 20.6 V G96 – Mt. Lemmon Survey MPS 540782
2014 10 21.43985 02 21 54.81 +14 14 12.7 20.4 V G96 – Mt. Lemmon Survey MPS 540782
2014 10 21.49705 02 21 55.31 +14 07 46.2 20.7 V G96 – Mt. Lemmon Survey MPS 540782
2014 10 21.49755 02 21 55.31 +14 07 42.6 20.2 V G96 – Mt. Lemmon Survey MPS 540782
2014 10 21.49805 02 21 55.30 +14 07 39.5 20.6 V G96 – Mt. Lemmon Survey MPS 540782
2014 10 21.49855 02 21 55.30 +14 07 35.9 20.3 V G96 – Mt. Lemmon Survey MPS 540782
2014 10 21.90560 02 22 20.42 +13 22 19.6   J95 – Great Shefford MPS 540782
2014 10 21.91211 02 22 20.43 +13 21 37.5   J95 – Great Shefford MPS 540782
2014 10 21.92029 02 22 20.51 +13 20 43.5 20.2 R J95 – Great Shefford MPS 540782
2014 10 21.984257 02 22 20.81 +13 13 59.9 20.0 V I93 – St Pardon de Conques MPS 540782
2014 10 21.995524 02 22 20.78 +13 12 45.5 20.4 V I93 – St Pardon de Conques MPS 540782
2014 10 22.003384 02 22 23.019 +13 12 24.54 20.0 R J04 – ESA Optical Ground Station, Tenerife MPS 540782
2014 10 22.006657 02 22 22.961 +13 12 03.18 20.0 R J04 – ESA Optical Ground Station, Tenerife MPS 540782
2014 10 22.21347 02 22 32.42 +12 49 14.5 20.4 R 291 – LPL/Spacewatch II MPS 540782
2014 10 22.21423 02 22 32.41 +12 49 08.9 20.7 R 291 – LPL/Spacewatch II MPS 540782
2014 10 22.21499 02 22 32.41 +12 49 04.3 20.9 R 291 – LPL/Spacewatch II MPS 540782
2014 10 22.21511 02 22 29.59 +12 48 52.3   H21 – Astronomical Research Observatory, Westfield MPS 540782
2014 10 22.22227 02 22 29.54 +12 48 05.7 21.0 V H21 – Astronomical Research Observatory, Westfield MPS 540782
2014 10 22.22944 02 22 29.48 +12 47 19.1   H21 – Astronomical Research Observatory, Westfield MPS 540782
2014 10 22.32149 02 22 29.74 +12 37 17.1 20.6 R H36 – Sandlot Observatory, Scranton MPS 540782
2014 10 22.33323 02 22 29.69 +12 35 59.8 20.3 R H36 – Sandlot Observatory, Scranton MPS 540782
2014 10 22.34501 02 22 29.64 +12 34 42.7 20.3 R H36 – Sandlot Observatory, Scranton MPS 540782
2014 10 22.95523 02 22 55.11 +11 28 28.6 20.4 V 958 – Observatoire de Dax MPS 540782
2014 10 22.97504 02 22 55.10 +11 26 22.2 20.5 V 958 – Observatoire de Dax MPS 540782
2014 10 25.220589 02 23 59.90 +07 33 18.8 20.8 R W86 – Cerro Tololo-LCO B MPS 542513
2014 10 25.225305 02 23 59.83 +07 32 50.0 20.5 R W86 – Cerro Tololo-LCO B MPS 542513
2014 10 25.230030 02 23 59.74 +07 32 21.4 20.6 R W86 – Cerro Tololo-LCO B MPS 542513
2014 10 25.31297 02 24 01.62 +07 21 37.0 20.6 R H36 – Sandlot Observatory, Scranton MPS 542513
2014 10 25.34789 02 24 02.67 +07 18 16.7 19.7 V G96 – Mt. Lemmon Survey MPS 542513
2014 10 25.34818 02 24 01.17 +07 18 02.5 19.6 R H36 – Sandlot Observatory, Scranton MPS 542513
2014 10 25.35397 02 24 02.57 +07 17 39.6 20.5 V G96 – Mt. Lemmon Survey MPS 542513
2014 10 25.35993 02 24 01.01 +07 16 49.5 20.9 R H36 – Sandlot Observatory, Scranton MPS 542513
2014 10 25.36006 02 24 02.49 +07 17 02.4 20.6 V G96 – Mt. Lemmon Survey MPS 542513
2014 10 25.36615 02 24 02.38 +07 16 25.4 20.6 V G96 – Mt. Lemmon Survey MPS 542513
2014 10 26.33442 02 24 27.31 +05 39 28.3 20.8 R H36 – Sandlot Observatory, Scranton MPS 542513
2014 10 26.36571 02 24 27.12 +05 36 22.3 20.7 R H36 – Sandlot Observatory, Scranton MPS 542513
2014 10 28.466750 02 25 18.055 +02 17 50.95 20.8 R 568 – Maunakea MPS 545833
2014 10 30.23188 02 25 57.62 -00 17 50.4 20.8 R H36 – Sandlot Observatory, Scranton MPS 542513
2014 10 30.25527 02 25 57.44 -00 19 49.8 21.0 R H36 – Sandlot Observatory, Scranton MPS 542513
2014 11 25.375485 02 35 31.974 -18 33 22.46 22.4 R 568 – Maunakea MPS 549808
2014 11 25.384887 02 35 32.044 -18 33 28.00 22.1 R 568 – Maunakea MPS 549808